This is the latest recevied weather packets stored in our database for station/object K1ZK-13. If no packets are shown the sender has not sent any weather packets the latest 10 day(s).
| Time | Temp. | Humidity | Pressure | Rain* | Wind** | Luminosity | Snow |
|---|---|---|---|---|---|---|---|
| 1778036522 | 14.44° C | 72% | 1008.8 hPa | 0 mm | - | 0 W/m² | - |
| 1778036218 | 14.44° C | 72% | 1008.9 hPa | 0 mm | - | 0 W/m² | - |
| 1778035914 | 14.44° C | 72% | 1008.7 hPa | 0 mm | - | 0 W/m² | - |
| 1778035612 | 14.44° C | 71% | 1008.7 hPa | 0 mm | - | 0 W/m² | - |
| 1778035308 | 15° C | 71% | 1008.3 hPa | 0 mm | - | 0 W/m² | - |
| 1778035004 | 15° C | 70% | 1008.3 hPa | 0 mm | - | 0 W/m² | - |
| 1778034702 | 15° C | 70% | 1008.6 hPa | 0 mm | - | 0 W/m² | - |
| 1778034399 | 15° C | 71% | 1008.4 hPa | 0 mm | - | 0 W/m² | - |
| 1778034096 | 15° C | 73% | 1008.5 hPa | 0 mm | - | 0 W/m² | - |
| 1778033794 | 15.56° C | 77% | 1008.5 hPa | 0 mm | - | 0 W/m² | - |
| 1778033491 | 15.56° C | 84% | 1008.2 hPa | 0 mm | - | 0 W/m² | - |
| 1778033188 | 15.56° C | 88% | 1008 hPa | 1.27 mm | - | 0 W/m² | - |
| 1778032886 | 15.56° C | 87% | 1007.9 hPa | 1.27 mm | - | 0 W/m² | - |
| 1778032583 | 16.11° C | 87% | 1008 hPa | 0 mm | - | 0 W/m² | - |
| 1778030153 | 15.56° C | 92% | 1007.4 hPa | 1.78 mm | - | 0 W/m² | - |
| 1778029849 | 15.56° C | 92% | 1006.8 hPa | 1.78 mm | - | 0 W/m² | - |
| 1778010759 | 19.44° C | 73% | 1003.4 hPa | 11.94 mm | - | 62 W/m² | - |
| 1778010457 | 19.44° C | 73% | 1003.1 hPa | 11.94 mm | - | 62 W/m² | - |
| 1778006823 | 23.33° C | 54% | 1002.7 hPa | 0 mm | - | 16 W/m² | - |
| 1778006521 | 23.33° C | 54% | 1002.9 hPa | 0 mm | - | 16 W/m² | - |
| 1778004096 | 23.33° C | 51% | 1001.7 hPa | 0 mm | - | 100 W/m² | - |
| 1778003792 | 23.33° C | 51% | 1001.9 hPa | 0 mm | - | 100 W/m² | - |
| 1778002578 | 23.33° C | 52% | 1001.9 hPa | 0 mm | - | 69 W/m² | - |
| 1778002274 | 23.33° C | 52% | 1001.7 hPa | 0 mm | - | 69 W/m² | - |
| 1778001972 | 23.33° C | 53% | 1001.8 hPa | 0 mm | - | 62 W/m² | - |
* Rain latest hour (hover to see other rain measurements)
** Current wind speed in m/s (hover to see current wind gust speed)